Location: Beuerbach
(48.1459°N, 10.9174°E)
Time: 03:40:42
(UTC+00:00)

Cosmos 1455 - Pass Details

Date: 14 August 2024
Orbit: 431 x 444 km, 82.5° (Epoch: 11 September)

Event Time Altitude Azimuth Distance (km) Brightness Sun altitude
Exits shadow 03:18:02 10° 216° (SW) 1,579 4.1 -8.5°
Reaches altitude 10° 03:18:02 10° 216° (SW) 1,575 4.1 -8.5°
Maximum altitude 03:21:14 35° 285° (WNW) 736 2.6 -8.0°
Drops below altitude 10° 03:24:25 10° 353° (N) 1,575 5.0 -7.6°
Sets 03:26:36 0° 2° (N) 2,446 6.1 -7.3°
